User: anonymous   Login
Location: NC_16_and_73
(35.4490°N, 81.0150°W)
Time: 02:44:06
(UTC-04:00)
Language:

Cosmos-2242 - Orbit

View from above orbital plane
View from above orbital plane
View from above satellite
View from above satellite

Ground track
Ground track

The orbit data is extracted from the following two-line orbital elements,

1 22626U 93024A   16272.14182747  .00000421  00000-0  43624-4 0  9998
2 22626  82.5195 288.8286 0017487 270.6304  89.2909 14.87526853267192
Epoch (UTC): 28 September 2016 03:24:13
Eccentricity: 0.0017487
inclination: 82.5195°
perigee height: 593 km
apogee height: 618 km
right ascension of ascending node: 288.8286°
argument of perigee: 270.6304°
revolutions per day: 14.87526853
mean anomaly at epoch: 89.2909°
orbit number at epoch: 26719

The dashed part of the orbit path shows where the satellite is in the earth's shadow,  

DLR